Weather History for Salmon, ID

Change the Weather History Date:

Wednesday, May 1, 2013

  Actual Average Record
Temperature  
Mean Temperature 36 °F -  
Max Temperature 51 °F 59 °F 85 °F (1985)
Min Temperature 21 °F 33 °F 19 °F (1972)
Degree Days  
Heating Degree Days 29    
Moisture  
Dew Point 13 °F    
Average Humidity 42    
Maximum Humidity 74    
Minimum Humidity 18    
Precipitation  
Precipitation 0.00 in - - ()
Sea Level Pressure  
Sea Level Pressure 30.42 in    
Wind  
Wind Speed 4 mph (NE)    
Max Wind Speed 13 mph    
Max Gust Speed 16 mph    
Visibility 10 miles    
Events      
Averages and records for this station are not official NWS values.
T = Trace of Precipitation, MM = Missing Value Source: NWS Daily Summary

Daily Weather History Graph

Daily Weather History Graph

Search for Another Location

Airport:

Trip Planner

Search our weather history database for the weather conditions in past years. The results will help you decide how hot, cold, wet, or windy it might be!

Date:

Astronomy

May. 01, 2013 Rise Set
Actual Time 6:24 AM MDT 8:41 PM MDT
Civil Twilight 5:51 AM MDT 9:14 PM MDT
Nautical Twilight 5:11 AM MDT 9:55 PM MDT
Astronomical Twilight 4:26 AM MDT 10:40 PM MDT
Moon 1:54 AM MDT (5/1) 12:07 PM MDT (5/1)
Length of Visible Light 15h 22m
Length of Day
14h 17m
Waning Gibbous, 58% of the Moon is Illuminated
May 1
Waning Gibbous
May 2
Last Quarter
May 9
New
May 17
First Quarter
May 24
Full

Hourly Weather History & Observations

Time (MDT) Temp. Windchill Dew Point Humidity Pressure Visibility Wind Dir Wind Speed Gust Speed Precip Events Conditions
12:15 AM 28.4 °F 24.6 °F 12.2 °F 51% 30.23 in 10.0 mi SE 3.5 mph - N/A   Clear
12:35 AM 28.4 °F - 12.2 °F 51% 30.24 in 10.0 mi Calm Calm - N/A   Clear
12:55 AM 32.0 °F 28.7 °F 12.2 °F 44% 30.25 in 10.0 mi NE 3.5 mph - N/A   Clear
1:35 AM 28.4 °F 23.3 °F 10.4 °F 47% 30.26 in 10.0 mi East 4.6 mph - N/A   Clear
1:55 AM 28.4 °F - 12.2 °F 51% 30.27 in 10.0 mi Calm Calm - N/A   Clear
2:15 AM 26.6 °F 22.6 °F 12.2 °F 55% 30.28 in 10.0 mi ESE 3.5 mph - N/A   Clear
2:35 AM 24.8 °F 20.5 °F 12.2 °F 59% 30.28 in 10.0 mi South 3.5 mph - N/A   Clear
2:55 AM 24.8 °F 19.1 °F 12.2 °F 59% 30.29 in 10.0 mi ESE 4.6 mph - N/A   Clear
3:15 AM 26.6 °F 20.0 °F 12.2 °F 55% 30.29 in 10.0 mi SSE 5.8 mph - N/A   Mostly Cloudy
3:35 AM 28.4 °F - 12.2 °F 51% 30.30 in 10.0 mi Calm Calm - N/A   Overcast
4:15 AM 28.4 °F - 15.8 °F 59% 30.31 in 10.0 mi Calm Calm - N/A   Overcast
4:35 AM 28.4 °F - 15.8 °F 59% 30.32 in 10.0 mi Calm Calm - N/A   Overcast
4:55 AM 24.8 °F 19.1 °F 12.2 °F 59% 30.34 in 10.0 mi SE 4.6 mph - N/A   Mostly Cloudy
5:15 AM 26.6 °F 22.6 °F 14.0 °F 59% 30.34 in 10.0 mi SE 3.5 mph - N/A   Partly Cloudy
5:35 AM 26.6 °F - 14.0 °F 59% 30.35 in 10.0 mi Calm Calm - N/A   Scattered Clouds
6:15 AM 23.0 °F - 12.2 °F 63% 30.37 in 10.0 mi Calm Calm - N/A   Clear
6:35 AM 21.2 °F - 12.2 °F 68% 30.38 in 10.0 mi Calm Calm - N/A   Clear
6:55 AM 21.2 °F - 14.0 °F 74% 30.40 in 10.0 mi Calm Calm - N/A   Clear
7:15 AM 23.0 °F - 15.8 °F 74% 30.41 in 10.0 mi Calm Calm - N/A   Mostly Cloudy
7:35 AM 24.8 °F 20.5 °F 17.6 °F 74% 30.42 in 10.0 mi NNW 3.5 mph - N/A   Overcast
7:55 AM 24.8 °F 20.5 °F 17.6 °F 74% 30.43 in 10.0 mi North 3.5 mph - N/A   Overcast
8:15 AM 24.8 °F - 17.6 °F 74% 30.44 in 10.0 mi Calm Calm - N/A   Mostly Cloudy
8:35 AM 26.6 °F - 17.6 °F 69% 30.45 in 10.0 mi Calm Calm - N/A   Mostly Cloudy
8:55 AM 28.4 °F - 17.6 °F 64% 30.45 in 10.0 mi Calm Calm - N/A   Overcast
9:15 AM 33.8 °F 30.8 °F 19.4 °F 56% 30.46 in 10.0 mi West 3.5 mph - N/A   Overcast
9:35 AM 35.6 °F 32.8 °F 15.8 °F 44% 30.46 in 10.0 mi NW 3.5 mph - N/A   Overcast
9:55 AM 37.4 °F - 14.0 °F 38% 30.46 in 10.0 mi Calm Calm - N/A   Mostly Cloudy
10:15 AM 37.4 °F 33.8 °F 12.2 °F 36% 30.46 in 10.0 mi ESE 4.6 mph - N/A   Partly Cloudy
10:35 AM 39.2 °F 35.0 °F 12.2 °F 33% 30.46 in 10.0 mi NE 5.8 mph - N/A   Clear
10:55 AM 39.2 °F 37.0 °F 12.2 °F 33% 30.47 in 10.0 mi East 3.5 mph - N/A   Clear
11:15 AM 39.2 °F 34.2 °F 12.2 °F 33% 30.47 in 10.0 mi NE 6.9 mph - N/A   Clear
11:35 AM 41.0 °F 36.4 °F 12.2 °F 31% 30.47 in 10.0 mi North 6.9 mph - N/A   Clear
11:55 AM 42.8 °F 39.3 °F 12.2 °F 29% 30.47 in 10.0 mi NNW 5.8 mph - N/A   Clear
12:15 PM 42.8 °F 38.6 °F 10.4 °F 27% 30.47 in 10.0 mi NNE 6.9 mph - N/A   Clear
12:35 PM 42.8 °F 38.6 °F 10.4 °F 27% 30.47 in 10.0 mi ENE 6.9 mph - N/A   Clear
12:55 PM 44.6 °F 42.2 °F 10.4 °F 25% 30.46 in 10.0 mi West 4.6 mph - N/A   Clear
1:15 PM 46.4 °F 41.9 °F 12.2 °F 25% 30.46 in 10.0 mi NW 9.2 mph - N/A   Clear
1:35 PM 44.6 °F 39.7 °F 10.4 °F 25% 30.46 in 10.0 mi North 9.2 mph - N/A   Clear
1:55 PM 46.4 °F - 10.4 °F 23% 30.46 in 10.0 mi Calm Calm - N/A   Clear
2:15 PM 46.4 °F 45.2 °F 8.6 °F 22% 30.46 in 10.0 mi NW 3.5 mph - N/A   Clear
2:35 PM 48.2 °F - 10.4 °F 22% 30.46 in 10.0 mi West 4.6 mph - N/A   Clear
3:15 PM 48.2 °F - 10.4 °F 22% 30.45 in 10.0 mi ENE 10.4 mph - N/A   Clear
3:35 PM 50.0 °F - 10.4 °F 20% 30.45 in 10.0 mi NNE 9.2 mph - N/A   Clear
4:15 PM 50.0 °F - 10.4 °F 20% 30.44 in 10.0 mi East 3.5 mph - N/A   Clear
4:35 PM 50.0 °F - 10.4 °F 20% 30.44 in 10.0 mi NNE 6.9 mph - N/A   Clear
4:55 PM 51.8 °F - 10.4 °F 19% 30.44 in 10.0 mi NNW 4.6 mph - N/A   Clear
5:15 PM 51.8 °F - 10.4 °F 19% 30.44 in 10.0 mi NNE 6.9 mph - N/A   Clear
5:35 PM 51.8 °F - 10.4 °F 19% 30.44 in 10.0 mi NNE 3.5 mph - N/A   Clear
6:15 PM 51.8 °F - 8.6 °F 18% 30.45 in 10.0 mi NNE 11.5 mph 16.1 mph N/A   Clear
6:35 PM 51.8 °F - 12.2 °F 21% 30.46 in 10.0 mi North 12.7 mph - N/A   Clear
6:55 PM 51.8 °F - 12.2 °F 21% 30.47 in 10.0 mi North 12.7 mph - N/A   Clear
7:35 PM 50.0 °F - 12.2 °F 22% 30.47 in 10.0 mi NNE 9.2 mph - N/A   Clear
7:55 PM 48.2 °F - 15.8 °F 27% 30.48 in 10.0 mi North 6.9 mph - N/A   Clear
10:15 PM 37.4 °F 33.8 °F 14.0 °F 38% 30.55 in 10.0 mi SE 4.6 mph - N/A   Clear
10:35 PM 37.4 °F 33.8 °F 12.2 °F 36% 30.55 in 10.0 mi ESE 4.6 mph - N/A   Clear
10:55 PM 35.6 °F 31.7 °F 12.2 °F 38% 30.56 in 10.0 mi SSE 4.6 mph - N/A   Clear
11:15 PM 35.6 °F 31.7 °F 12.2 °F 38% 30.56 in 10.0 mi SE 4.6 mph - N/A   Clear
11:35 PM 33.8 °F 27.7 °F 12.2 °F 41% 30.57 in 10.0 mi SSE 6.9 mph - N/A   Clear
11:55 PM 33.8 °F - 12.2 °F 41% 30.58 in 10.0 mi Calm Calm - N/A   Clear